Flag for U.S.A. Weather past 2 weeks in Amarillo, Texas, U.S.A.

Now
83 °F

Sunny.


Feels Like: 81 °F
Forecast: 61 / 88 °F
Wind: 8 mph from Northeast

Location: Amarillo International Airport

Current Time: Aug 29, 2015 at 7:27:12 PM

Latest Report: Aug 29, 2015 at 6:53 PM


Visibility: 10 mi

Pressure: 29.97 "Hg (26.40 "Hg at 1117m altitude)

Humidity: 33%

Dew point: 51 °F

Location of AmarilloLocation

Historic Weather in Amarillo — Graph

°F

Amarillo temperature yesterday

Maximum temperature yesterday: 89 °F (at 3:53 PM)
Minimum temperature yesterday: 69 °F (at 7:53 AM)
Average temperature yesterday: 77 °F

Past Weeks' High & Low Weather Summary

 TemperatureHumidityPressure
High94 °F (Aug 22, 3:53 PM)97% (Aug 21, 8:56 AM)30.19 "Hg (Aug 21, 8:56 AM)
Low55 °F (Aug 20, 4:53 AM)29% (Aug 22, 5:53 PM)29.65 "Hg (Aug 18, 4:53 PM)
Average74 °F62%29.94 "Hg
* Reported Aug 14 5:53 PM — Aug 29 5:53 PM, Amarillo, Weather by CustomWeather, © 2015

Note: Actual official high and low records may vary slightly from our data, if they occured in-between our weather recording intervals... More about our weather records

Advertising

Amarillo weather history for previous 24 hours

 ConditionsComfort  
Time TempWeatherWind HumidityBarometerVisibility
5:53 PM
Sat, Aug 29
86 °FSunny.13 mph35%29.97 "Hg10 mi
4:53 PM87 °FSunny.10 mph35%29.97 "Hg10 mi
3:53 PM88 °FSunny.7 mph33%29.98 "Hg10 mi
2:53 PM87 °FSunny.12 mph35%29.99 "Hg10 mi
1:53 PM87 °FSunny.7 mph40%30.01 "Hg10 mi
12:53 PM86 °FSunny.13 mph42%30.02 "Hg10 mi
11:53 AM84 °FSunny.10 mph45%30.03 "Hg10 mi
10:53 AM81 °FSunny.14 mph51%30.02 "Hg10 mi
9:53 AM76 °FSunny.10 mph58%30.01 "Hg10 mi
8:53 AM69 °FSunny.8 mph76%30.01 "Hg10 mi
7:53 AM66 °FClear.8 mph81%30.00 "Hg10 mi
6:53 AM66 °FClear.5 mph78%29.97 "Hg10 mi
5:53 AM66 °FClear.5 mph78%29.96 "Hg10 mi
4:53 AM64 °FClear.6 mph84%29.97 "Hg10 mi
3:53 AM67 °FClear.6 mph76%29.95 "Hg10 mi
2:53 AM67 °FClear.6 mph79%29.96 "Hg10 mi
1:53 AM67 °FClear.5 mph79%29.98 "Hg10 mi
12:53 AM70 °FClear.7 mph71%29.98 "Hg10 mi
11:53 PM
Fri, Aug 28
71 °FPassing clouds.7 mph71%29.98 "Hg10 mi
10:53 PM73 °FClear.12 mph64%29.98 "Hg10 mi
9:53 PM77 °FClear.12 mph60%29.96 "Hg10 mi
8:53 PM79 °FSunny.8 mph54%29.91 "Hg10 mi
7:53 PM82 °FSunny.9 mph49%29.89 "Hg10 mi
Weather by CustomWeather, © 2015

See weather overviewHow to use our weather pages